K5RWS Weather Reports


time (UTC)temp
C
wind
direction
speed
KPH
gust
KPH
rain 1hr
cm
rain 24hr
cm
rain mn
cm
humidity
%
barometer
mb
20260906232204 33 251 4.8 6.4 0.00 0.00 0.00 19 1018.8
20260906231659 35 209 14.5 16.1 0.00 0.00 0.00 19 1018.7
20260906231154 34 214 0.0 11.3 0.00 0.00 0.00 19 1018.7
20260906230653 34 215 11.3 14.5 0.00 0.00 0.00 19 1018.6
20260906230148 35 200 4.8 9.7 0.00 0.00 0.00 19 1018.9
20260906225642 34 241 12.9 16.1 0.00 0.00 0.00 19 1018.7
20260906225138 34 124 6.4 14.5 0.00 0.00 0.00 20 1018.7
20260906224632 35 197 1.6 4.8 0.00 0.00 0.00 19 1018.8
20260906224129 35 209 3.2 9.7 0.00 0.00 0.00 18 1018.7
20260906223625 35 155 1.6 4.8 0.00 0.00 0.00 19 1018.7
20260906223125 35 156 1.6 9.7 0.00 0.00 0.00 19 1018.8
20260906222624 35 163 4.8 12.9 0.00 0.00 0.00 19 1018.9
20260906222122 34 206 17.7 24.1 0.00 0.00 0.00 20 1018.8
20260906221621 35 243 8.0 17.7 0.00 0.00 0.00 19 1018.9
20260906221115 35 311 1.6 4.8 0.00 0.00 0.00 19 1018.9
20260906220611 35 263 3.2 6.4 0.00 0.00 0.00 19 1019.0
20260906220106 35 219 4.8 6.4 0.00 0.00 0.00 19 1019.0
20260906215605 35 234 3.2 11.3 0.00 0.00 0.00 19 1019.3
20260906215103 33 117 1.6 6.4 0.00 0.00 0.00 19 1019.3
20260906214601 34 236 3.2 4.8 0.00 0.00 0.00 18 1019.6
20260906214057 35 243 3.2 3.2 0.00 0.00 0.00 20 1019.6
20260906213556 35 234 6.4 11.3 0.00 0.00 0.00 18 1019.7
20260906213051 34 199 0.0 1.6 0.00 0.00 0.00 19 1019.7
20260906212544 33 244 11.3 16.1 0.00 0.00 0.00 19 1020.1
20260906212039 34 256 8.0 12.9 0.00 0.00 0.00 18 1020.0
20260906211533 35 282 12.9 14.5 0.00 0.00 0.00 17 1019.8
20260906211029 35 238 6.4 14.5 0.00 0.00 0.00 18 1020.1
20260906210523 35 228 4.8 9.7 0.00 0.00 0.00 18 1020.1
20260906210018 34 189 3.2 6.4 0.00 0.00 0.00 19 1020.2
20260906205514 33 293 3.2 9.7 0.00 0.00 0.00 18 1020.6
20260906205009 33 281 11.3 14.5 0.00 0.00 0.00 18 1020.4
20260906204508 33 234 0.0 4.8 0.00 0.00 0.00 18 1020.6
20260906204003 34 225 6.4 11.3 0.00 0.00 0.00 18 1020.7
20260906203458 33 265 6.4 12.9 0.00 0.00 0.00 18 1020.8
20260906202955 35 167 3.2 9.7 0.00 0.00 0.00 18 1020.9
20260906202448 35 112 1.6 6.4 0.00 0.00 0.00 18 1020.8
20260906201943 34 284 3.2 4.8 0.00 0.00 0.00 19 1020.8
20260906201438 32 125 4.8 6.4 0.00 0.00 0.00 19 1020.9
20260906200932 33 251 4.8 12.9 0.00 0.00 0.00 19 1021.0
20260906200423 34 284 8.0 9.7 0.00 0.00 0.00 18 1020.9
20260906195918 33 282 4.8 9.7 0.00 0.00 0.00 19 1021.1
20260906195414 33 289 4.8 4.8 0.00 0.00 0.00 19 1021.0
20260906194910 32 57 4.8 11.3 0.00 0.00 0.00 20 1021.3
20260906194405 32 269 8.0 11.3 0.00 0.00 0.00 20 1021.4
20260906193901 33 317 6.4 6.4 0.00 0.00 0.00 19 1021.5
20260906193355 34 247 1.6 4.8 0.00 0.00 0.00 19 1021.7
20260906192851 33 231 4.8 9.7 0.00 0.00 0.00 19 1021.7
20260906192345 33 21 4.8 6.4 0.00 0.00 0.00 19 1021.8
20260906191844 33 62 0.0 3.2 0.00 0.00 0.00 18 1021.7
20260906191338 32 86 3.2 9.7 0.00 0.00 0.00 20 1022.1
20260906190833 32 47 6.4 9.7 0.00 0.00 0.00 19 1022.0
20260906190327 32 22 3.2 9.7 0.00 0.00 0.00 18 1022.3
20260906185827 32 354 3.2 9.7 0.00 0.00 0.00 19 1022.2
20260906185326 32 47 3.2 6.4 0.00 0.00 0.00 18 1022.2
20260906184820 32 217 1.6 3.2 0.00 0.00 0.00 19 1022.7
20260906184316 32 73 6.4 11.3 0.00 0.00 0.00 19 1022.2
20260906183811 32 26 4.8 9.7 0.00 0.00 0.00 20 1022.7
20260906183308 32 121 1.6 3.2 0.00 0.00 0.00 21 1022.7
20260906182808 32 124 1.6 3.2 0.00 0.00 0.00 20 1023.0
20260906182306 31 295 6.4 9.7 0.00 0.00 0.00 20 1023.0
20260906181758 31 320 4.8 6.4 0.00 0.00 0.00 20 1023.0
20260906181255 30 345 1.6 3.2 0.00 0.00 0.00 21 1023.4
20260906180754 30 17 1.6 6.4 0.00 0.00 0.00 22 1023.2
20260906180249 31 83 3.2 3.2 0.00 0.00 0.00 22 1023.2
20260906175746 31 71 3.2 4.8 0.00 0.00 0.00 22 1023.2
20260906175243 31 348 3.2 4.8 0.00 0.00 0.00 23 1023.4
20260906174741 30 43 4.8 6.4 0.00 0.00 0.00 24 1023.5
20260906174240 30 40 6.4 12.9 0.00 0.00 0.00 25 1023.6
20260906173736 30 53 3.2 11.3 0.00 0.00 0.00 26 1023.7
20260906173232 30 112 1.6 9.7 0.00 0.00 0.00 25 1023.7
20260906172731 29 77 1.6 6.4 0.00 0.00 0.00 27 1023.7
20260906172226 28 36 1.6 9.7 0.00 0.00 0.00 27 1023.5
20260906171727 29 5 4.8 9.7 0.00 0.00 0.00 28 1023.8
20260906171222 28 70 6.4 11.3 0.00 0.00 0.00 28 1023.8
20260906170718 28 83 1.6 4.8 0.00 0.00 0.00 28 1023.9
20260906170213 28 55 6.4 12.9 0.00 0.00 0.00 29 1023.8
20260906165709 28 56 11.3 16.1 0.00 0.00 0.00 30 1024.1
20260906165204 28 26 4.8 11.3 0.00 0.00 0.00 30 1023.9
20260906164703 27 24 8.0 14.5 0.00 0.00 0.00 29 1024.1
20260906164159 27 41 6.4 12.9 0.00 0.00 0.00 30 1024.1
20260906163654 27 21 8.0 16.1 0.00 0.00 0.00 30 1023.9
20260906163150 27 36 6.4 14.5 0.00 0.00 0.00 30 1023.9
20260906162647 26 20 9.7 11.3 0.00 0.00 0.00 32 1024.1
20260906162146 26 23 6.4 12.9 0.00 0.00 0.00 32 1023.9
20260906161641 26 21 8.0 16.1 0.00 0.00 0.00 32 1024.1
20260906161140 26 7 8.0 14.5 0.00 0.00 0.00 32 1024.1
20260906160639 27 0 9.7 12.9 0.00 0.00 0.00 31 1024.2
20260906160133 26 22 6.4 16.1 0.00 0.00 0.00 32 1023.8
20260906155631 26 341 6.4 9.7 0.00 0.00 0.00 31 1024.1
20260906155127 26 352 11.3 12.9 0.00 0.00 0.00 32 1024.1
20260906154621 26 26 11.3 14.5 0.00 0.00 0.00 32 1023.8
20260906154121 26 26 8.0 14.5 0.00 0.00 0.00 32 1023.9
20260906153620 26 11 4.8 12.9 0.00 0.00 0.00 32 1023.8
20260906153114 25 0 8.0 11.3 0.00 0.00 0.00 32 1024.1
20260906152610 25 359 6.4 11.3 0.00 0.00 0.00 32 1023.7
20260906152103 25 326 6.4 12.9 0.00 0.00 0.00 32 1023.8
20260906151558 25 307 12.9 14.5 0.00 0.00 0.00 32 1023.8
20260906151054 24 306 8.0 12.9 0.00 0.00 0.00 32 1023.9
20260906150549 24 316 12.9 14.5 0.00 0.00 0.00 33 1024.1
20260906150044 24 353 12.9 17.7 0.00 0.00 0.00 33 1023.9
20260906145543 23 326 12.9 17.7 0.00 0.00 0.00 34 1023.8
20260906145038 23 323 8.0 14.5 0.00 0.00 0.00 33 1023.9
20260906144532 23 308 9.7 14.5 0.00 0.00 0.00 33 1023.8
20260906144028 23 231 11.3 20.9 0.00 0.00 0.00 33 1023.8
20260906143523 23 314 14.5 17.7 0.00 0.00 0.00 33 1024.1
20260906143019 23 304 12.9 20.9 0.00 0.00 0.00 33 1023.8
20260906142513 22 324 14.5 24.1 0.00 0.00 0.00 34 1023.9
20260906142009 22 292 8.0 20.9 0.00 0.00 0.00 34 1023.9
20260906141508 23 302 17.7 24.1 0.00 0.00 0.00 34 1023.7
20260906141003 23 344 9.7 14.5 0.00 0.00 0.00 33 1023.7
20260906140457 23 337 4.8 12.9 0.00 0.00 0.00 33 1023.8
20260906135955 23 10 6.4 12.9 0.00 0.00 0.00 33 1023.4
20260906135454 23 335 6.4 6.4 0.00 0.00 0.00 33 1023.7
20260906134949 22 31 6.4 9.7 0.00 0.00 0.00 34 1023.5
20260906134444 22 30 1.6 6.4 0.00 0.00 0.00 34 1023.8
20260906133939 22 67 0.0 3.2 0.00 0.00 0.00 34 1023.5
20260906133435 22 46 1.6 3.2 0.00 0.00 0.00 34 1023.4
20260906132930 22 271 6.4 9.7 0.00 0.00 0.00 34 1023.1
20260906132425 21 325 6.4 6.4 0.00 0.00 0.00 35 1023.5
20260906131920 20 316 3.2 6.4 0.00 0.00 0.00 37 1023.4
20260906131416 20 122 0.0 0.0 0.00 0.00 0.00 38 1023.2
20260906130912 21 88 3.2 4.8 0.00 0.00 0.00 37 1023.4
20260906130411 21 156 3.2 4.8 0.00 0.00 0.00 36 1023.2
20260906125905 21 308 8.0 12.9 0.00 0.00 0.00 36 1023.1
20260906125402 21 309 11.3 12.9 0.00 0.00 0.00 36 1023.0
20260906124857 21 315 8.0 12.9 0.00 0.00 0.00 37 1023.0
20260906124353 21 336 6.4 11.3 0.00 0.00 0.00 36 1022.8
20260906123852 21 298 6.4 11.3 0.00 0.00 0.00 36 1023.0
20260906123347 21 308 6.4 9.7 0.00 0.00 0.00 36 1022.9
20260906122847 21 328 6.4 6.4 0.00 0.00 0.00 36 1023.1
20260906122341 20 301 4.8 9.7 0.00 0.00 0.00 37 1023.0
20260906121838 20 302 3.2 3.2 0.00 0.00 0.00 38 1023.1
20260906121334 20 82 0.0 0.0 0.00 0.00 0.00 39 1023.1
20260906120830 20 342 0.0 1.6 0.00 0.00 0.00 38 1023.1
20260906120326 20 355 3.2 3.2 0.00 0.00 0.00 38 1023.1
20260906115822 20 358 0.0 3.2 0.00 0.00 0.00 38 1023.0
20260906115317 20 32 3.2 4.8 0.00 0.00 0.00 38 1022.8
20260906114816 20 71 1.6 3.2 0.00 0.00 0.00 38 1022.8
20260906114311 20 130 1.6 3.2 0.00 0.00 0.00 39 1023.0
20260906113806 20 173 0.0 1.6 0.00 0.00 0.00 39 1023.1
20260906113305 20 201 0.0 1.6 0.00 0.00 0.00 39 1022.8
20260906112800 20 210 0.0 1.6 0.00 0.00 0.00 38 1022.8
20260906112251 20 198 0.0 0.0 0.00 0.00 0.00 38 1022.9
20260906111751 21 186 0.0 1.6 0.00 0.00 0.00 37 1023.0
20260906111250 21 202 0.0 0.0 0.00 0.00 0.00 36 1022.9
20260906110745 21 250 1.6 1.6 0.00 0.00 0.00 36 1022.9
20260906110241 21 334 0.0 1.6 0.00 0.00 0.00 36 1022.8
20260906105740 21 251 1.6 1.6 0.00 0.00 0.00 36 1022.7
20260906105236 21 219 1.6 4.8 0.00 0.00 0.00 36 1022.9
20260906104731 21 202 1.6 3.2 0.00 0.00 0.00 36 1022.8
20260906104230 21 179 0.0 0.0 0.00 0.00 0.00 36 1022.7
20260906103728 21 160 1.6 1.6 0.00 0.00 0.00 36 1022.8
20260906103222 22 127 0.0 0.0 0.00 0.00 0.00 36 1022.5
20260906102718 22 65 1.6 3.2 0.00 0.00 0.00 35 1022.8
20260906102217 22 280 1.6 3.2 0.00 0.00 0.00 34 1022.4
20260906101712 22 286 3.2 6.4 0.00 0.00 0.00 34 1022.5
20260906101207 22 299 4.8 6.4 0.00 0.00 0.00 34 1022.5
20260906100702 23 303 8.0 11.3 0.00 0.00 0.00 34 1022.5
20260906100157 22 313 4.8 11.3 0.00 0.00 0.00 34 1022.5
20260906095652 22 258 4.8 6.4 0.00 0.00 0.00 34 1022.4
20260906095147 22 294 4.8 9.7 0.00 0.00 0.00 35 1022.3
20260906094646 22 252 3.2 3.2 0.00 0.00 0.00 35 1022.5
20260906094142 22 216 0.0 1.6 0.00 0.00 0.00 36 1022.5
20260906093637 22 213 0.0 1.6 0.00 0.00 0.00 35 1022.3
20260906093132 22 200 0.0 1.6 0.00 0.00 0.00 35 1022.3
20260906092627 22 119 3.2 3.2 0.00 0.00 0.00 35 1022.3
20260906092122 22 272 0.0 3.2 0.00 0.00 0.00 34 1022.3
20260906091618 22 282 1.6 3.2 0.00 0.00 0.00 34 1022.3
20260906091115 22 261 1.6 1.6 0.00 0.00 0.00 34 1022.2
20260906090614 22 4 3.2 4.8 0.00 0.00 0.00 34 1022.4
20260906090109 23 21 0.0 1.6 0.00 0.00 0.00 34 1022.2
20260906085608 23 0 1.6 1.6 0.00 0.00 0.00 34 1022.2
20260906085103 23 344 1.6 4.8 0.00 0.00 0.00 33 1022.3
20260906084557 23 296 3.2 6.4 0.00 0.00 0.00 33 1022.1
20260906084056 23 253 3.2 6.4 0.00 0.00 0.00 33 1022.2
20260906083552 23 269 4.8 6.4 0.00 0.00 0.00 33 1022.5
20260906083051 23 273 4.8 4.8 0.00 0.00 0.00 34 1022.2
20260906082547 23 293 4.8 9.7 0.00 0.00 0.00 34 1022.3
20260906082043 23 273 4.8 9.7 0.00 0.00 0.00 33 1022.3
20260906081538 23 270 6.4 9.7 0.00 0.00 0.00 33 1022.3
20260906081033 23 255 4.8 6.4 0.00 0.00 0.00 33 1022.3
20260906080530 23 262 4.8 6.4 0.00 0.00 0.00 33 1022.4
20260906080025 22 254 3.2 3.2 0.00 0.00 0.00 34 1022.7
20260906075519 23 252 0.0 1.6 0.00 0.00 0.00 34 1022.5
20260906075014 23 243 1.6 3.2 0.00 0.00 0.00 33 1022.3
20260906074509 23 253 3.2 4.8 0.00 0.00 0.00 34 1022.5
20260906074007 23 232 1.6 1.6 0.00 0.00 0.00 34 1022.9
20260906073502 23 258 4.8 4.8 0.00 0.00 0.00 33 1022.8
20260906072958 23 21 1.6 1.6 0.00 0.00 0.00 33 1022.8
20260906072453 23 331 1.6 3.2 0.00 0.00 0.00 33 1022.8
20260906071949 23 28 1.6 3.2 0.00 0.00 0.00 33 1022.8
20260906071446 24 243 0.0 1.6 0.00 0.00 0.00 32 1022.8
20260906070941 24 275 1.6 1.6 0.00 0.00 0.00 32 1022.7
20260906070437 23 244 1.6 1.6 0.00 0.00 0.00 33 1022.4
20260906065932 24 224 0.0 0.0 0.00 0.00 0.00 32 1022.8
20260906065427 25 260 1.6 3.2 0.00 0.00 0.00 31 1022.7
20260906064922 26 44 1.6 4.8 0.00 0.00 0.00 30 1022.9
20260906064419 25 16 3.2 4.8 0.00 0.00 0.00 31 1022.9
20260906063918 25 39 4.8 9.7 0.00 0.00 0.00 30 1022.7
20260906063414 25 72 4.8 9.7 0.00 0.00 0.00 31 1022.4
20260906062909 25 104 3.2 4.8 0.00 0.00 0.00 31 1022.4
20260906062409 24 92 1.6 3.2 0.00 0.00 0.00 33 1022.4
20260906061903 23 155 0.0 0.0 0.00 0.00 0.00 33 1022.4
20260906061400 23 221 1.6 1.6 0.00 0.00 0.00 34 1022.3
20260906060854 23 117 1.6 1.6 0.00 0.00 0.00 34 1022.2
20260906060352 23 199 0.0 0.0 0.00 0.00 0.00 33 1022.2
20260906055847 24 184 0.0 0.0 0.00 0.00 0.00 33 1022.2
20260906055343 24 89 3.2 3.2 0.00 0.00 0.00 32 1022.3
20260906054838 24 113 1.6 3.2 0.00 0.00 0.00 32 1022.1
20260906054332 24 107 1.6 3.2 0.00 0.00 0.00 32 1022.0
20260906053829 25 212 0.0 1.6 0.00 0.00 0.00 32 1022.1
20260906053325 25 251 1.6 4.8 0.00 0.00 0.00 32 1022.1
20260906052820 25 271 6.4 6.4 0.00 0.00 0.00 31 1022.1
20260906052316 26 286 6.4 11.3 0.00 0.00 0.00 30 1022.1
20260906051813 26 309 6.4 11.3 0.00 0.00 0.00 30 1022.1
20260906051312 26 262 11.3 14.5 0.00 0.00 0.00 30 1021.8
20260906050808 26 293 9.7 16.1 0.00 0.00 0.00 29 1021.7
20260906050303 26 300 8.0 9.7 0.00 0.00 0.00 30 1021.8
20260906045801 26 309 11.3 12.9 0.00 0.00 0.00 29 1022.0
20260906045256 26 297 8.0 11.3 0.00 0.00 0.00 29 1022.0
20260906044753 26 291 6.4 9.7 0.00 0.00 0.00 29 1021.8
20260906044247 26 268 6.4 11.3 0.00 0.00 0.00 29 1022.0
20260906043743 26 279 6.4 11.3 0.00 0.00 0.00 29 1021.8
20260906043239 26 271 8.0 9.7 0.00 0.00 0.00 30 1022.0
20260906042738 25 276 4.8 6.4 0.00 0.00 0.00 30 1022.1
20260906042237 25 281 6.4 6.4 0.00 0.00 0.00 31 1022.0
20260906041733 26 264 6.4 6.4 0.00 0.00 0.00 30 1021.7
20260906041228 26 293 4.8 9.7 0.00 0.00 0.00 29 1022.0
20260906040724 26 274 6.4 11.3 0.00 0.00 0.00 29 1021.8
20260906040219 26 302 4.8 11.3 0.00 0.00 0.00 29 1021.7
20260906035715 26 283 4.8 9.7 0.00 0.00 0.00 29 1021.8
20260906035211 27 270 4.8 4.8 0.00 0.00 0.00 29 1021.7
20260906034710 27 295 6.4 9.7 0.00 0.00 0.00 29 1022.1
20260906034205 27 316 6.4 9.7 0.00 0.00 0.00 29 1022.0
20260906033701 27 270 4.8 11.3 0.00 0.00 0.00 29 1022.0
20260906033200 27 250 6.4 9.7 0.00 0.00 0.00 29 1021.6
20260906032657 26 298 9.7 11.3 0.00 0.00 0.00 30 1021.8
20260906032152 26 294 8.0 11.3 0.00 0.00 0.00 30 1021.8
20260906031647 26 279 8.0 12.9 0.00 0.00 0.00 30 1021.5
20260906031142 26 276 6.4 9.7 0.00 0.00 0.00 30 1021.4
20260906030642 26 271 6.4 11.3 0.00 0.00 0.00 30 1021.4
20260906030137 26 305 6.4 11.3 0.00 0.00 0.00 30 1021.3
20260906025636 26 293 8.0 11.3 0.00 0.00 0.00 30 1021.3
20260906025136 26 282 8.0 9.7 0.00 0.00 0.00 30 1021.3
20260906024625 26 288 8.0 11.3 0.00 0.00 0.00 30 1021.1
20260906024119 27 270 6.4 9.7 0.00 0.00 0.00 30 1021.0
20260906023615 27 274 4.8 6.4 0.00 0.00 0.00 30 1021.0
20260906023115 27 248 6.4 11.3 0.00 0.00 0.00 30 1020.9
20260906022610 27 268 8.0 11.3 0.00 0.00 0.00 30 1020.9
20260906022106 27 289 8.0 11.3 0.00 0.00 0.00 30 1020.9
20260906021602 27 280 6.4 6.4 0.00 0.00 0.00 30 1020.7
20260906021100 27 293 6.4 9.7 0.00 0.00 0.00 30 1020.7
20260906020554 28 296 6.4 6.4 0.00 0.00 0.00 29 1020.7
20260906020054 28 285 8.0 9.7 0.00 0.00 0.00 29 1020.7
20260906015553 28 262 4.8 6.4 0.00 0.00 0.00 28 1020.7
20260906015047 28 277 3.2 6.4 0.00 0.00 0.00 28 1020.6
20260906014543 29 277 4.8 6.4 0.00 0.00 0.00 27 1020.6
20260906014039 30 278 4.8 9.7 0.00 0.00 0.00 27 1020.6
20260906013533 30 270 6.4 9.7 0.00 0.00 0.00 27 1020.6
20260906013029 30 278 6.4 11.3 0.00 0.00 0.00 27 1020.7
20260906012524 30 263 8.0 12.9 0.00 0.00 0.00 27 1020.7
20260906012023 30 282 6.4 12.9 0.00 0.00 0.00 26 1020.6
20260906011520 30 347 6.4 12.9 0.00 0.00 0.00 26 1020.4
20260906011020 30 243 11.3 14.5 0.00 0.00 0.00 26 1020.4
20260906010515 30 239 4.8 12.9 0.00 0.00 0.00 26 1020.2
20260906010011 31 287 6.4 9.7 0.00 0.00 0.00 26 1020.4
20260906005510 31 251 9.7 14.5 0.00 0.00 0.00 26 1020.6
20260906005009 31 260 9.7 12.9 0.00 0.00 0.00 26 1020.6
20260906004508 31 271 6.4 11.3 0.00 0.00 0.00 25 1020.7
20260906004003 31 296 12.9 16.1 0.00 0.00 0.00 25 1020.9
20260906003459 32 276 8.0 11.3 0.00 0.00 0.00 25 1020.7
20260906002954 31 244 4.8 9.7 0.00 0.00 0.00 25 1020.8
20260906002454 31 293 12.9 14.5 0.00 0.00 0.00 26 1020.7
20260906001950 32 257 6.4 12.9 0.00 0.00 0.00 25 1020.6
20260906001445 31 305 6.4 11.3 0.00 0.00 0.00 26 1020.7
20260906000940 31 242 8.0 11.3 0.00 0.00 0.00 25 1020.6
20260906000436 32 325 8.0 16.1 0.00 0.00 0.00 25 1020.6
20260905235925 32 247 8.0 9.7 0.00 0.00 0.00 25 1020.6
20260905235424 32 308 3.2 6.4 0.00 0.00 0.00 26 1020.6
20260905234920 32 272 9.7 16.1 0.00 0.00 0.00 25 1020.8
20260905234415 31 313 6.4 9.7 0.00 0.00 0.00 25 1020.6
20260905233909 31 314 6.4 11.3 0.00 0.00 0.00 26 1020.3
20260905233405 31 280 11.3 12.9 0.00 0.00 0.00 25 1020.6
20260905232903 31 270 8.0 16.1 0.00 0.00 0.00 25 1020.6
20260905232400 32 299 11.3 17.7 0.00 0.00 0.00 25 1020.4